Torna al catalogo

QIANFAN-162

AttivoComunicazioniPO
NORAD 69121·PAYLOAD·🇨🇳 China

Lanciato May 17, 2026 da Wenchang Space Launch Site

Loading…

Prossimi Passaggi (prossime 24 ore)

TLE

AggiornatoSource: Space-Track

Epoca: Sep 14, 2026, 21:11 UTC

1 69121U 26108T   26257.88310966  .00000101  00000-0  13821-3 0  9999
2 69121  89.0191  13.0168 0002159 100.0182 260.1213 13.51022139 16589

Traccia QIANFAN-162 in tempo reale con AllMySat

Download on the App Store